This is the latest recevied weather packets stored in our database for station/object VE4GLS. If no packets are shown the sender has not sent any weather packets the latest 1 day(s).
| Time | Temp. | Humidity | Pressure | Rain* | Wind** | Luminosity | Snow |
|---|---|---|---|---|---|---|---|
| 1778050055 | -2.78° C | 77% | 1013.9 hPa | 0 mm | 2.68 m/s, 280° | - | - |
| 1778049983 | -2.78° C | 77% | 1013.9 hPa | 0 mm | 2.24 m/s, 284° | - | - |
| 1778049383 | -2.78° C | 76% | 1013.9 hPa | 0 mm | 1.34 m/s, 279° | - | - |
| 1778049155 | -2.22° C | 75% | 1013.9 hPa | 0 mm | 0.89 m/s, 281° | - | - |
| 1778048782 | -2.22° C | 76% | 1013.9 hPa | 0 mm | 1.34 m/s, 283° | - | - |
| 1778048254 | -1.67° C | 76% | 1013.9 hPa | 0 mm | 2.68 m/s, 301° | - | - |
| 1778048182 | -1.67° C | 76% | 1013.9 hPa | 0 mm | 2.24 m/s, 294° | - | - |
| 1778047582 | -1.67° C | 75% | 1013.9 hPa | 0 mm | 2.68 m/s, 293° | - | - |
| 1778047354 | -1.67° C | 75% | 1013.9 hPa | 0 mm | 2.68 m/s, 298° | - | - |
| 1778046982 | -1.11° C | 74% | 1013.9 hPa | 0 mm | 3.13 m/s, 301° | - | - |
| 1778046456 | -1.11° C | 74% | 1014 hPa | 0 mm | 2.68 m/s, 305° | - | - |
| 1778046384 | -1.11° C | 74% | 1013.9 hPa | 0 mm | 3.13 m/s, 302° | - | - |
| 1778045784 | -1.11° C | 73% | 1013.9 hPa | 0 mm | 2.68 m/s, 299° | - | - |
| 1778045555 | -1.11° C | 73% | 1013.9 hPa | 0 mm | 3.13 m/s, 308° | - | - |
| 1778045183 | -1.11° C | 73% | 1013.9 hPa | 0 mm | 2.68 m/s, 306° | - | - |
| 1778044654 | -0.56° C | 72% | 1013.8 hPa | 0 mm | 3.13 m/s, 298° | - | - |
| 1778044582 | -0.56° C | 72% | 1013.9 hPa | 0 mm | 3.13 m/s, 295° | - | - |
| 1778043983 | -0.56° C | 72% | 1013.8 hPa | 0 mm | 3.58 m/s, 301° | - | - |
| 1778043755 | -0.56° C | 71% | 1013.8 hPa | 0 mm | 3.13 m/s, 301° | - | - |
| 1778043383 | -0.56° C | 71% | 1013.8 hPa | 0 mm | 4.02 m/s, 308° | - | - |
| 1778042855 | 0° C | 71% | 1013.7 hPa | 0 mm | 2.68 m/s, 299° | - | - |
| 1778042782 | 0° C | 72% | 1013.7 hPa | 0 mm | 2.68 m/s, 304° | - | - |
| 1778042182 | -0.56° C | 71% | 1013.7 hPa | 0 mm | 3.13 m/s, 308° | - | - |
| 1778041954 | -0.56° C | 71% | 1013.7 hPa | 0 mm | 2.68 m/s, 312° | - | - |
| 1778041583 | 0° C | 70% | 1013.7 hPa | 0 mm | 3.13 m/s, 293° | - | - |
* Rain latest hour (hover to see other rain measurements)
** Current wind speed in m/s (hover to see current wind gust speed)